Погода в Яблоневе

Россия / Тульская область     53°13′35″N   37°54′33″E
темп.,
°C
ветер,
м/с
пор.,
м/с
влажн.,
%
обл.,
%
осадки,
мм/ч
давл.,
гПа
погр.,
м
2 июля, сб
сб200:00+9ссв33770 0.0 102146
03:00+8с35810 0.0 102188
06:00+10с411784 0.0 1022289
09:00+16с610645 0.0 1022809
12:00+20с79545 0.0 10211535
15:00+20с79503 0.0 10201645
18:00+20с58620 0.0 1019859
21:00+15сз46752 0.0 101985
3 июля, вс
вс300:00+14сз410735 0.0 1019147
03:00+13сз487471 0.0 1018131
06:00+15сз5117054 0.0 1018250
09:00+20сз5866100 0.0 1017436
12:00+23ссз68590 0.0 10161043
15:00+26с69541 0.4 10152274
18:00+24с58640 0.0 1015524
21:00+19с22771 0.0 101611
4 июля, пн
пн400:00+18зсз337563 0.0 101627
03:00+19сз3471100 0.0 101678
06:00+18ссз358161 0.0 1017121
09:00+22св23683 0.0 1017519
12:00+25всв33572 0.0 10171367
15:00+26св244986 0.1 10171961
18:00+23ююв34704 0.0 1017251
21:00+21ююз226888 0.0 101819
5 июля, вт
вт500:00+18зюз22745 0.0 101811
03:00+17зюз22795 0.0 101921
06:00+19зюз238247 0.0 101967
09:00+24з346527 0.0 1019420
12:00+27зюз33530 0.0 10181363
15:00+28зюз3349100 0.0 10182134
18:00+23сз347699 0.8 101871
21:00+20ссз228498 1.1 101811
6 июля, ср
ср600:00+19ююз228517 0.5 101812
03:00+18юз339182 1.6 101849
06:00+19зюз258882 0.9 1018138
09:00+22юз367843 0.9 1018260
12:00+27юз455575 0.0 10171131
15:00+28юз5651100 0.0 10161587
18:00+26ююз46635 0.0 1016342
21:00+21ю47755 0.0 1016106